Time,TemperatureF,DewpointF,PressureIn,WindDirection,WindDirectionDegrees,WindSpeedMPH,WindSpeedGustMPH,Humidity,HourlyPrecipIn,Conditions,Clouds,dailyrainin,SolarRadiationWatts/m^2,SoftwareType,DateUTC
2013-04-09 00:00:00,41.0,41.0,-100.00,WNW,292,5.0,-999.0,98,-99.99,,,-99.99,0.000000,,2013-04-09 04:00:00,
2013-04-09 00:43:00,41.0,41.0,-100.00,WNW,292,5.0,-999.0,98,-99.99,,,-99.99,0.000000,,2013-04-09 04:43:00,
2013-04-09 00:53:00,41.0,41.0,-100.00,WNW,292,5.0,-999.0,98,-99.99,,,-99.99,0.000000,,2013-04-09 04:53:00,
2013-04-09 01:00:00,40.0,40.0,-100.00,SE,135,2.0,-999.0,98,-99.99,,,-99.99,0.000000,,2013-04-09 05:00:00,
2013-04-09 01:43:00,40.0,40.0,-100.00,SE,135,2.0,-999.0,98,-99.99,,,-99.99,0.000000,,2013-04-09 05:43:00,
2013-04-09 01:52:00,40.0,40.0,-100.00,SE,135,2.0,-999.0,98,-99.99,,,-99.99,0.000000,,2013-04-09 05:52:00,
2013-04-09 02:00:00,40.0,39.0,-100.00,WSW,247,0.0,-999.0,98,-99.99,,,-99.99,0.000000,,2013-04-09 06:00:00,
2013-04-09 02:42:00,40.0,39.0,-100.00,WSW,247,0.0,-999.0,98,-99.99,,,-99.99,0.000000,,2013-04-09 06:42:00,
2013-04-09 02:52:00,40.0,39.0,-100.00,WSW,247,0.0,-999.0,98,-99.99,,,-99.99,0.000000,,2013-04-09 06:52:00,
2013-04-09 03:00:00,40.0,39.0,-100.00,ESE,112,1.0,-999.0,98,-99.99,,,-99.99,0.000000,,2013-04-09 07:00:00,
2013-04-09 03:42:00,40.0,39.0,-100.00,ESE,112,1.0,-999.0,98,-99.99,,,-99.99,0.000000,,2013-04-09 07:42:00,
2013-04-09 03:53:00,40.0,39.0,-100.00,ESE,112,1.0,-999.0,98,-99.99,,,-99.99,0.000000,,2013-04-09 07:53:00,
2013-04-09 05:00:00,38.0,38.0,-100.00,ENE,67,3.0,-999.0,98,-99.99,,,-99.99,0.000000,,2013-04-09 09:00:00,
2013-04-09 05:44:00,38.0,38.0,-100.00,ENE,67,3.0,-999.0,98,-99.99,,,-99.99,0.000000,,2013-04-09 09:44:00,
2013-04-09 05:53:00,38.0,38.0,-100.00,ENE,67,3.0,-999.0,98,-99.99,,,-99.99,0.000000,,2013-04-09 09:53:00,
2013-04-09 06:00:00,37.0,37.0,-100.00,East,90,4.0,-999.0,99,-99.99,,,-99.99,0.000000,,2013-04-09 10:00:00,
2013-04-09 06:43:00,37.0,37.0,-100.00,East,90,4.0,-999.0,99,-99.99,,,-99.99,0.000000,,2013-04-09 10:43:00,
2013-04-09 06:54:00,37.0,37.0,-100.00,East,90,4.0,-999.0,99,-99.99,,,-99.99,0.000000,,2013-04-09 10:54:00,
2013-04-09 07:00:00,37.0,37.0,-100.00,ESE,112,5.0,-999.0,99,-99.99,,,-99.99,0.000000,,2013-04-09 11:00:00,
2013-04-09 07:43:00,37.0,37.0,-100.00,ESE,112,5.0,-999.0,99,-99.99,,,-99.99,0.000000,,2013-04-09 11:43:00,
2013-04-09 07:52:00,37.0,37.0,-100.00,ESE,112,5.0,-999.0,99,-99.99,,,-99.99,0.000000,,2013-04-09 11:52:00,
2013-04-09 09:00:00,37.0,37.0,-100.00,ESE,112,7.0,-999.0,99,-99.99,,,-99.99,37.119999,,2013-04-09 13:00:00,
2013-04-09 09:43:00,37.0,37.0,-100.00,ESE,112,7.0,-999.0,99,-99.99,,,-99.99,37.119999,,2013-04-09 13:43:00,
2013-04-09 09:53:00,37.0,37.0,-100.00,ESE,112,7.0,-999.0,99,-99.99,,,-99.99,37.119999,,2013-04-09 13:53:00,
2013-04-09 10:00:00,38.0,38.0,-100.00,East,90,7.0,-999.0,99,-99.99,,,-99.99,89.320000,,2013-04-09 14:00:00,
2013-04-09 10:43:00,38.0,38.0,-100.00,East,90,7.0,-999.0,99,-99.99,,,-99.99,89.320000,,2013-04-09 14:43:00,
2013-04-09 10:53:00,38.0,38.0,-100.00,East,90,7.0,-999.0,99,-99.99,,,-99.99,89.320000,,2013-04-09 14:53:00,
2013-04-09 11:00:00,39.0,39.0,-100.00,East,90,7.0,-999.0,99,-99.99,,,-99.99,99.760002,,2013-04-09 15:00:00,
2013-04-09 11:44:00,39.0,39.0,-100.00,East,90,7.0,-999.0,99,-99.99,,,-99.99,99.760002,,2013-04-09 15:44:00,
2013-04-09 11:54:00,39.0,39.0,-100.00,East,90,7.0,-999.0,99,-99.99,,,-99.99,99.760002,,2013-04-09 15:54:00,
2013-04-09 12:00:00,39.0,39.0,-100.00,East,90,5.0,-999.0,99,0.15,,,-99.99,30.160000,,2013-04-09 16:00:00,
2013-04-09 12:43:00,39.0,39.0,-100.00,East,90,5.0,-999.0,99,0.15,,,-99.99,30.160000,,2013-04-09 16:43:00,
2013-04-09 12:54:00,39.0,39.0,-100.00,East,90,5.0,-999.0,99,0.15,,,-99.99,30.160000,,2013-04-09 16:54:00,
2013-04-09 13:00:00,40.0,40.0,-100.00,ENE,67,5.0,-999.0,99,0.20,,,-99.99,60.320000,,2013-04-09 17:00:00,
2013-04-09 13:43:00,40.0,40.0,-100.00,ENE,67,5.0,-999.0,99,0.20,,,-99.99,60.320000,,2013-04-09 17:43:00,
2013-04-09 13:55:00,40.0,40.0,-100.00,ENE,67,5.0,-999.0,99,0.20,,,-99.99,60.320000,,2013-04-09 17:55:00,
2013-04-09 14:00:00,40.0,40.0,-100.00,ESE,112,7.0,-999.0,99,0.33,,,-99.99,11.600000,,2013-04-09 18:00:00,
2013-04-09 14:43:00,40.0,40.0,-100.00,ESE,112,7.0,-999.0,99,0.33,,,-99.99,11.600000,,2013-04-09 18:43:00,
2013-04-09 14:53:00,40.0,40.0,-100.00,ESE,112,7.0,-999.0,99,0.33,,,-99.99,11.600000,,2013-04-09 18:53:00,
2013-04-09 16:00:00,40.0,40.0,-100.00,East,90,7.0,-999.0,99,0.08,,,-99.99,29.000000,,2013-04-09 20:00:00,
2013-04-09 16:44:00,40.0,40.0,-100.00,East,90,7.0,-999.0,99,0.08,,,-99.99,29.000000,,2013-04-09 20:44:00,
2013-04-09 16:53:00,40.0,40.0,-100.00,East,90,7.0,-999.0,99,0.08,,,-99.99,29.000000,,2013-04-09 20:53:00,
2013-04-09 17:00:00,41.0,41.0,-100.00,East,90,4.0,-999.0,99,0.04,,,-99.99,35.959999,,2013-04-09 21:00:00,
2013-04-09 17:53:00,41.0,41.0,-100.00,East,90,4.0,-999.0,99,0.04,,,-99.99,35.959999,,2013-04-09 21:53:00,
2013-04-09 18:00:00,41.0,41.0,-100.00,ENE,67,5.0,-999.0,99,0.06,,,-99.99,40.599998,,2013-04-09 22:00:00,
2013-04-09 18:43:00,41.0,41.0,-100.00,ENE,67,5.0,-999.0,99,0.06,,,-99.99,40.599998,,2013-04-09 22:43:00,
2013-04-09 18:54:00,41.0,41.0,-100.00,ENE,67,5.0,-999.0,99,0.06,,,-99.99,40.599998,,2013-04-09 22:54:00,
2013-04-09 19:00:00,41.0,40.0,-100.00,ENE,67,9.0,-999.0,99,-99.99,,,-99.99,27.840000,,2013-04-09 23:00:00,
2013-04-09 19:43:00,41.0,40.0,-100.00,ENE,67,9.0,-999.0,99,-99.99,,,-99.99,27.840000,,2013-04-09 23:43:00,
2013-04-09 19:53:00,41.0,40.0,-100.00,ENE,67,9.0,-999.0,99,-99.99,,,-99.99,27.840000,,2013-04-09 23:53:00,
2013-04-09 22:00:00,40.0,40.0,-100.00,NE,45,9.0,-999.0,99,0.01,,,-99.99,0.000000,,2013-04-10 02:00:00,
2013-04-09 22:43:00,40.0,40.0,-100.00,NE,45,9.0,-999.0,99,0.01,,,-99.99,0.000000,,2013-04-10 02:43:00,
2013-04-09 22:53:00,40.0,40.0,-100.00,NE,45,9.0,-999.0,99,0.01,,,-99.99,0.000000,,2013-04-10 02:53:00,
2013-04-09 23:00:00,40.0,40.0,-100.00,NE,45,9.0,-999.0,98,-99.99,,,-99.99,0.000000,,2013-04-10 03:00:00,
2013-04-09 23:43:00,40.0,40.0,-100.00,NE,45,9.0,-999.0,98,-99.99,,,-99.99,0.000000,,2013-04-10 03:43:00,
2013-04-09 23:53:00,40.0,40.0,-100.00,NE,45,9.0,-999.0,98,-99.99,,,-99.99,0.000000,,2013-04-10 03:53:00,